OHCAM EFIV-EFIV

Flight info

Callsign OHCAM
Flight time 0h 36m
Altitude 3000
Route TOUCH AND GO / AREA CIRCLING
Aircraft C152/L-V/N

Departure

Time 2026-04-24 23:51
Airport Ivalo Airport (EFIV)

Arrival

Time 2026-04-25 00:27
Airport Ivalo Airport (EFIV)
Time Latitude Longitude Altitude Speed Heading
2026-04-24 23:35 68.60794 27.41697 477 ft 0 kts 136°
2026-04-24 23:37 68.60801 27.41647 474 ft 0 kts 121°
2026-04-24 23:38 68.60801 27.41683 474 ft 3 kts 26°
2026-04-24 23:38 68.60810 27.41683 474 ft 0 kts 355°
2026-04-24 23:47 68.60822 27.41682 476 ft 9 kts
2026-04-24 23:48 68.60908 27.41736 474 ft 7 kts 25°
2026-04-24 23:48 68.60954 27.41711 474 ft 7 kts 314°
2026-04-24 23:48 68.61034 27.41515 473 ft 13 kts 309°
2026-04-24 23:48 68.61041 27.41439 473 ft 0 kts 221°
2026-04-24 23:49 68.61038 27.41433 473 ft 0 kts 217°
2026-04-24 23:49 68.60989 27.41279 474 ft 24 kts 231°
2026-04-24 23:50 68.60755 27.40588 475 ft 72 kts 224°
2026-04-24 23:50 68.60385 27.39549 628 ft 78 kts 233°
2026-04-24 23:50 68.60005 27.38394 735 ft 87 kts 230°
2026-04-24 23:50 68.59689 27.37004 846 ft 86 kts 257°
2026-04-24 23:51 68.59651 27.35358 898 ft 92 kts 277°
2026-04-24 23:51 68.59811 27.33759 1017 ft 90 kts 296°
2026-04-24 23:51 68.60197 27.32447 1122 ft 89 kts 321°
2026-04-24 23:51 68.60772 27.31796 1239 ft 88 kts 349°
2026-04-24 23:52 68.61385 27.31808 1376 ft 86 kts
2026-04-24 23:52 68.61941 27.32387 1446 ft 94 kts 34°
2026-04-24 23:52 68.62389 27.33819 1426 ft 102 kts 52°
2026-04-24 23:52 68.62834 27.35299 1456 ft 99 kts 38°
2026-04-24 23:53 68.63365 27.36421 1523 ft 95 kts 28°
2026-04-24 23:53 68.63957 27.37279 1565 ft 96 kts 25°
2026-04-24 23:53 68.64521 27.38280 1571 ft 96 kts 32°
2026-04-24 23:53 68.65025 27.39360 1582 ft 91 kts 33°
2026-04-24 23:54 68.65539 27.40484 1471 ft 95 kts 34°
2026-04-24 23:54 68.66028 27.41572 1462 ft 88 kts 34°
2026-04-24 23:54 68.66511 27.42573 1511 ft 86 kts 32°
2026-04-24 23:54 68.66988 27.43604 1557 ft 89 kts 35°
2026-04-24 23:55 68.67457 27.44759 1572 ft 90 kts 36°
2026-04-24 23:55 68.67914 27.45919 1622 ft 89 kts 37°
2026-04-24 23:55 68.68386 27.47137 1487 ft 100 kts 38°
2026-04-24 23:55 68.68873 27.48478 1445 ft 99 kts 42°
2026-04-24 23:56 68.69348 27.49930 1329 ft 103 kts 46°
2026-04-24 23:56 68.69759 27.51520 1264 ft 104 kts 56°
2026-04-24 23:56 68.70073 27.53321 1207 ft 103 kts 64°
2026-04-24 23:56 68.70350 27.55123 1126 ft 105 kts 64°
2026-04-24 23:57 68.70632 27.56941 1094 ft 102 kts 64°
2026-04-24 23:57 68.70923 27.58762 1025 ft 105 kts 63°
2026-04-24 23:57 68.71214 27.60582 983 ft 104 kts 65°
2026-04-24 23:57 68.71469 27.62455 937 ft 104 kts 71°
2026-04-24 23:58 68.71646 27.64351 917 ft 98 kts 78°
2026-04-24 23:58 68.71800 27.66168 886 ft 89 kts 63°
2026-04-24 23:58 68.72253 27.67224 861 ft 88 kts
2026-04-24 23:58 68.72806 27.67158 996 ft 74 kts
2026-04-24 23:59 68.73343 27.67472 1092 ft 81 kts
2026-04-24 23:59 68.73866 27.67729 1357 ft 77 kts 11°
2026-04-24 23:59 68.74394 27.68202 1529 ft 82 kts 14°
2026-04-24 23:59 68.74958 27.68708 1618 ft 89 kts 14°
2026-04-25 00:00 68.75578 27.69242 1612 ft 96 kts 12°
2026-04-25 00:00 68.76245 27.69812 1459 ft 106 kts 16°
2026-04-25 00:00 68.76780 27.70356 1905 ft 47 kts 220°
2026-04-25 00:00 68.76375 27.69406 1032 ft 116 kts 215°
2026-04-25 00:01 68.75636 27.69470 1107 ft 110 kts 138°
2026-04-25 00:01 68.75469 27.71507 987 ft 116 kts 77°
2026-04-25 00:01 68.75962 27.72914 967 ft 109 kts
2026-04-25 00:01 68.76641 27.72331 1013 ft 100 kts 333°
2026-04-25 00:02 68.77244 27.71429 1107 ft 97 kts 328°
2026-04-25 00:02 68.77750 27.70505 1405 ft 78 kts
2026-04-25 00:02 68.77791 27.72015 1297 ft 106 kts 63°
2026-04-25 00:02 68.78282 27.71808 1480 ft 70 kts 350°
2026-04-25 00:03 68.78726 27.72202 1513 ft 62 kts
2026-04-25 00:03 68.79181 27.72461 1523 ft 69 kts
2026-04-25 00:03 68.79626 27.72426 1609 ft 61 kts 345°
2026-04-25 00:03 68.80110 27.72309 1500 ft 75 kts
2026-04-25 00:04 68.80675 27.72560 1307 ft 89 kts 12°
2026-04-25 00:04 68.81208 27.72825 1652 ft 73 kts 355°
2026-04-25 00:04 68.81744 27.73214 1735 ft 84 kts 12°
2026-04-25 00:04 68.82307 27.73641 1777 ft 86 kts
2026-04-25 00:05 68.82890 27.74164 1682 ft 86 kts 12°
2026-04-25 00:05 68.83447 27.74640 1629 ft 77 kts 10°
2026-04-25 00:05 68.83952 27.75076 1647 ft 77 kts 12°
2026-04-25 00:05 68.84462 27.75548 1659 ft 72 kts 13°
2026-04-25 00:06 68.84998 27.76070 1489 ft 91 kts 17°
2026-04-25 00:06 68.85601 27.76805 1378 ft 95 kts 21°
2026-04-25 00:06 68.86185 27.77709 1301 ft 97 kts 27°
2026-04-25 00:06 68.86766 27.78692 1215 ft 95 kts 15°
2026-04-25 00:07 68.87358 27.78702 1358 ft 78 kts 353°
2026-04-25 00:07 68.87877 27.78562 1477 ft 77 kts 351°
2026-04-25 00:07 68.88426 27.78404 1471 ft 81 kts 351°
2026-04-25 00:07 68.88991 27.78275 1528 ft 81 kts 353°
2026-04-25 00:08 68.89553 27.78111 1567 ft 82 kts 349°
2026-04-25 00:08 68.90128 27.77818 1490 ft 89 kts 347°
2026-04-25 00:08 68.90734 27.77515 1446 ft 89 kts 350°
2026-04-25 00:08 68.91338 27.77401 1480 ft 85 kts 356°
2026-04-25 00:09 68.91916 27.77362 1544 ft 81 kts 354°
2026-04-25 00:09 68.92477 27.77289 1549 ft 82 kts 352°
2026-04-25 00:09 68.92890 27.76393 1543 ft 88 kts 297°
2026-04-25 00:09 68.92898 27.74503 1356 ft 100 kts 266°
2026-04-25 00:10 68.92744 27.72696 1345 ft 98 kts 262°
2026-04-25 00:10 68.92576 27.70805 1235 ft 100 kts 263°
2026-04-25 00:10 68.92250 27.69182 1117 ft 110 kts 208°
2026-04-25 00:10 68.91489 27.69433 966 ft 114 kts 150°
2026-04-25 00:11 68.91076 27.70251 978 ft 107 kts 143°
2026-04-25 00:11 68.90445 27.71392 1003 ft 110 kts 153°
2026-04-25 00:11 68.89478 27.72097 1090 ft 109 kts 182°
2026-04-25 00:11 68.88730 27.71847 1146 ft 111 kts 196°
2026-04-25 00:12 68.87995 27.71315 1231 ft 109 kts 200°
2026-04-25 00:12 68.87508 27.70869 1266 ft 109 kts 204°
2026-04-25 00:12 68.86787 27.70226 1327 ft 110 kts 202°
2026-04-25 00:12 68.86055 27.69538 1296 ft 114 kts 204°
2026-04-25 00:13 68.85311 27.68862 1353 ft 109 kts 200°
2026-04-25 00:13 68.84614 27.68430 1368 ft 97 kts 191°
2026-04-25 00:13 68.83961 27.68423 1313 ft 93 kts 173°
2026-04-25 00:13 68.83317 27.68553 1277 ft 94 kts 181°
2026-04-25 00:14 68.82654 27.68676 1239 ft 95 kts 177°
2026-04-25 00:14 68.81991 27.68832 1341 ft 98 kts 180°
2026-04-25 00:14 68.81278 27.68961 1424 ft 107 kts 180°
2026-04-25 00:14 68.80516 27.69118 1500 ft 112 kts 179°
2026-04-25 00:15 68.79741 27.69071 1538 ft 108 kts 189°
2026-04-25 00:15 68.79070 27.68797 1543 ft 91 kts 194°
2026-04-25 00:15 68.78461 27.68502 1484 ft 86 kts 197°
2026-04-25 00:15 68.77907 27.68134 1385 ft 79 kts 198°
2026-04-25 00:16 68.77398 27.67823 1352 ft 74 kts 199°
2026-04-25 00:16 68.76881 27.67402 1400 ft 87 kts 205°
2026-04-25 00:16 68.76274 27.66691 1462 ft 102 kts 210°
2026-04-25 00:16 68.75709 27.65895 1510 ft 78 kts 218°
2026-04-25 00:17 68.75289 27.65156 1467 ft 68 kts 221°
2026-04-25 00:17 68.74869 27.64442 1399 ft 77 kts 215°
2026-04-25 00:17 68.74383 27.63603 1306 ft 88 kts 220°
2026-04-25 00:17 68.73951 27.62423 1262 ft 90 kts 233°
2026-04-25 00:18 68.73498 27.61165 1197 ft 92 kts 223°
2026-04-25 00:18 68.72961 27.60220 1158 ft 90 kts 212°
2026-04-25 00:18 68.72393 27.59475 1092 ft 95 kts 203°
2026-04-25 00:18 68.71726 27.59331 1013 ft 100 kts 174°
2026-04-25 00:19 68.71079 27.59939 990 ft 99 kts 150°
2026-04-25 00:19 68.70485 27.60887 961 ft 97 kts 158°
2026-04-25 00:19 68.69857 27.61465 939 ft 95 kts 172°
2026-04-25 00:19 68.69206 27.61396 897 ft 94 kts 190°
2026-04-25 00:20 68.68567 27.61027 848 ft 93 kts 199°
2026-04-25 00:20 68.67980 27.60329 828 ft 91 kts 210°
2026-04-25 00:20 68.67452 27.59474 858 ft 85 kts 215°
2026-04-25 00:20 68.66969 27.58571 861 ft 87 kts 218°
2026-04-25 00:21 68.66497 27.57449 878 ft 91 kts 226°
2026-04-25 00:21 68.66040 27.56165 886 ft 99 kts 227°
2026-04-25 00:21 68.65554 27.54783 903 ft 98 kts 228°
2026-04-25 00:21 68.65105 27.53446 872 ft 92 kts 232°
2026-04-25 00:22 68.64702 27.52080 819 ft 91 kts 231°
2026-04-25 00:22 68.64224 27.50815 836 ft 97 kts 227°
2026-04-25 00:22 68.63769 27.49498 930 ft 94 kts 228°
2026-04-25 00:22 68.63302 27.48100 873 ft 104 kts 230°
2026-04-25 00:23 68.62804 27.46629 813 ft 106 kts 229°
2026-04-25 00:23 68.62286 27.45126 696 ft 110 kts 227°
2026-04-25 00:23 68.61778 27.43589 609 ft 108 kts 227°
2026-04-25 00:23 68.61262 27.42101 483 ft 98 kts 231°
2026-04-25 00:24 68.60833 27.40825 520 ft 91 kts 233°
2026-04-25 00:24 68.60390 27.39559 601 ft 96 kts 227°
2026-04-25 00:24 68.59856 27.38651 792 ft 92 kts 192°
2026-04-25 00:24 68.59289 27.39363 882 ft 100 kts 125°
2026-04-25 00:25 68.59144 27.41405 800 ft 108 kts 81°
2026-04-25 00:25 68.59421 27.43163 960 ft 101 kts 56°
2026-04-25 00:25 68.59895 27.44667 980 ft 107 kts 42°
2026-04-25 00:25 68.60464 27.46004 979 ft 111 kts 38°
2026-04-25 00:26 68.61087 27.47288 971 ft 109 kts 32°
2026-04-25 00:26 68.61803 27.47388 920 ft 110 kts 328°
2026-04-25 00:26 68.62124 27.45912 1042 ft 74 kts 277°
2026-04-25 00:26 68.62027 27.44542 787 ft 74 kts 245°
2026-04-25 00:27 68.61710 27.43440 578 ft 70 kts 231°
2026-04-25 00:27 68.61396 27.42501 486 ft 62 kts 232°
2026-04-25 00:27 68.61132 27.41697 477 ft 51 kts 232°
2026-04-25 00:27 68.60922 27.41095 474 ft 37 kts 235°
2026-04-25 00:28 68.60754 27.40562 475 ft 38 kts 216°
2026-04-25 00:28 68.60631 27.40482 470 ft 18 kts 82°
2026-04-25 00:28 68.60629 27.40964 476 ft 31 kts 99°
2026-04-25 00:28 68.60624 27.41620 476 ft 29 kts 86°
2026-04-25 00:29 68.60680 27.41872 480 ft 7 kts 48°
2026-04-25 00:29 68.60683 27.41881 479 ft 0 kts 48°